Powrót do katalogu

STARLINK-32831

AktywnyŁącznośćVLEO
NORAD 62860·PAYLOAD·🇺🇸 United States

Wystrzelony Feb 1, 2025 z Vandenberg Space Force Base

Loading…

Następne Przeloty (najbliższe 24 godziny)

TLE

ŚwieżeSource: CelesTrak SupGP

Epoka: Sep 15, 2026, 03:01 UTC

1 62860C 25022G   26258.12618056  .00054804  00000+0  16189-2 0  2580
2 62860  53.1579 326.4748 0001092  93.2651 107.1245 15.34369455    12

Śledź STARLINK-32831 w czasie rzeczywistym z AllMySat

Download on the App Store